Tracking 18942 objects as of 18-Jan-2018
HD Live streaming from Space Station
objects crossing your sky now

FENGYUN 1C DEB

Track FENGYUN 1C DEB now!
10-day predictions


NORAD ID: 33708
Int'l Code: 1999-025DGV
Perigee: 604.8 km
Apogee: 698.1 km
Inclination: 99.5 °
Period: 97.6 minutes
Semi major axis: 7022 km
RCS: 0.0099 m2 (small)
Launch date: May 10, 1999
Source: People's Republic of China (PRC)
Launch site: Taiyaun Space Center, China (TSC)

Note: This is SATELLITE DEBRIS
aabbcc
Your satellite tracking list
Your tracking list is empty




NASA's NSSDC Master Catalog

Two Line Element Set (TLE):
1 33708U 99025DGV 18013.99367586 +.00002588 +00000-0 +37940-3 0  9991
2 33708 099.4824 202.1184 0066412 338.1589 021.6787 14.75253600551299
Source of the keplerian elements: AFSPC